Hinckley, MN

3:47 PM CST on December 16, 2017 (GMT -0600)
Hinckley

Weather History for K04W - August, 2014

Change the Weather History Date:

Saturday, August 16, 2014

  Actual Average (KJMR) Record (KJMR)
Temperature  
Mean Temperature 72 °F -  
Max Temperature 84 °F 81 °F 104 °F (1988)
Min Temperature 60 °F 52 °F 37 °F (1976)
Cooling Degree Days 7    
Growing Degree Days 22 (Base 50)    
Moisture  
Dew Point 67 °F    
Average Humidity 89    
Maximum Humidity 100    
Minimum Humidity 58    
Precipitation  
Precipitation 0.00 in - - ()
Sea Level Pressure  
Sea Level Pressure 29.88 in    
Wind  
Wind Speed 3 mph (East)    
Max Wind Speed 15 mph    
Max Gust Speed 18 mph    
Visibility 7 miles    
Events Fog , Rain , Thunderstorm    
Averages and records for this station are not official NWS values.
T = Trace of Precipitation, MM = Missing Value Source: NWS Daily Summary

Daily Weather History Graph

Daily Weather History Graph

Search for Another Location

Airport or City:

Trip Planner

Search our weather history database for the weather conditions in past years. The results will help you decide how hot, cold, wet, or windy it might be!

Date:

Astronomy

Aug. 16, 2014 Rise Set
Actual Time 6:12 AM CDT 8:18 PM CDT
Civil Twilight 5:39 AM CDT 8:50 PM CDT
Nautical Twilight 4:59 AM CDT 9:30 PM CDT
Astronomical Twilight 4:14 AM CDT 10:15 PM CDT
Moon 11:37 PM CDT 1:22 PM CDT
Length of Visible Light 15h 11m
Length of Day
14h 06m
Waning Gibbous, 58% of the Moon is Illuminated
Aug 16
Waning Gibbous
Aug 17
Last Quarter
Aug 25
New
Sep 2
First Quarter
Sep 8
Full

Hourly Weather History & Observations

Time (CDT) Temp. Heat Index Dew Point Humidity Pressure Visibility Wind Dir Wind Speed Gust Speed Precip Events Conditions
12:19 AM 64.4 °F - 64.4 °F 100% 29.86 in 10.0 mi WSW 5.8 mph - N/A   Clear
12:39 AM 68.0 °F - 64.4 °F 88% 29.85 in 10.0 mi WSW 5.8 mph - N/A   Clear
12:59 AM 68.0 °F - 66.2 °F 94% 29.86 in 10.0 mi WSW 3.5 mph - N/A   Clear
1:19 AM 66.2 °F - 64.4 °F 94% 29.85 in 10.0 mi WSW 3.5 mph - N/A   Clear
1:39 AM 66.2 °F - 64.4 °F 94% 29.85 in 10.0 mi SW 3.5 mph - N/A   Clear
1:59 AM 66.2 °F - 64.4 °F 94% 29.85 in 10.0 mi Calm Calm - N/A   Clear
2:19 AM 66.2 °F - 64.4 °F 94% 29.85 in 10.0 mi Calm Calm - N/A   Clear
2:39 AM 64.4 °F - 64.4 °F 100% 29.84 in 7.0 mi Calm Calm - N/A   Clear
2:59 AM 64.4 °F - 64.4 °F 100% 29.84 in 7.0 mi Calm Calm - N/A   Clear
3:19 AM 64.4 °F - 64.4 °F 100% 29.83 in 4.0 mi Calm Calm - N/A   Clear
3:39 AM 62.6 °F - 62.6 °F 100% 29.83 in 3.0 mi Calm Calm - N/A   Clear
3:59 AM 62.6 °F - 62.6 °F 100% 29.83 in 1.0 mi Calm Calm - N/A   Mist
4:18 AM 62.6 °F - 62.6 °F 100% 29.83 in 0.2 mi Calm Calm - N/A Fog Fog
4:39 AM 62.6 °F - 62.6 °F 100% 29.83 in 0.2 mi Calm Calm - N/A Fog Fog
4:59 AM 60.8 °F - 60.8 °F 100% 29.84 in 0.5 mi Calm Calm - N/A Fog Fog
5:19 AM 62.6 °F - 62.6 °F 100% 29.84 in 0.2 mi SSW 3.5 mph - N/A Fog Fog
5:39 AM 62.6 °F - 62.6 °F 100% 29.85 in 0.2 mi Calm Calm - N/A Fog Fog
5:59 AM 62.6 °F - 62.6 °F 100% 29.85 in 0.2 mi Calm Calm - N/A Fog Fog
6:19 AM 60.8 °F - 60.8 °F 100% 29.85 in 0.2 mi South 3.5 mph - N/A Fog Fog
6:39 AM 62.6 °F - 62.6 °F 100% 29.86 in 0.2 mi Calm Calm - N/A Fog Fog
6:59 AM 62.6 °F - 62.6 °F 100% 29.87 in 0.2 mi Calm Calm - N/A Fog Fog
7:19 AM 64.4 °F - 64.4 °F 100% 29.88 in 0.2 mi SSW 5.8 mph - N/A Fog Fog
7:39 AM 64.4 °F - 64.4 °F 100% 29.88 in 0.2 mi SSW 3.5 mph - N/A Fog Fog
7:58 AM 66.2 °F - 66.2 °F 100% 29.88 in 0.2 mi WSW 5.8 mph - N/A Fog Fog
8:19 AM 68.0 °F - 68.0 °F 100% 29.88 in 0.2 mi SW 4.6 mph - N/A Fog Fog
8:39 AM 68.0 °F - 68.0 °F 100% 29.88 in 0.8 mi WSW 5.8 mph - N/A   Overcast
8:59 AM 68.0 °F - 68.0 °F 100% 29.88 in 3.0 mi West 3.5 mph - N/A   Overcast
9:19 AM 68.0 °F - 68.0 °F 100% 29.89 in 5.0 mi WSW 4.6 mph - N/A   Overcast
9:39 AM 69.8 °F - 69.8 °F 100% 29.89 in 7.0 mi SW 4.6 mph - N/A   Overcast
9:59 AM 69.8 °F - 69.8 °F 100% 29.88 in 7.0 mi SW 3.5 mph - N/A   Overcast
10:19 AM 71.6 °F - 69.8 °F 94% 29.89 in 10.0 mi Calm Calm - N/A   Overcast
10:39 AM 73.4 °F - 69.8 °F 88% 29.88 in 10.0 mi Calm Calm - N/A   Overcast
10:59 AM 73.4 °F - 69.8 °F 88% 29.88 in 10.0 mi Calm Calm - N/A   Overcast
11:19 AM 77.0 °F - 71.6 °F 83% 29.88 in 10.0 mi SSW 4.6 mph - N/A   Overcast
11:39 AM 78.8 °F - 71.6 °F 78% 29.88 in 10.0 mi Calm Calm - N/A   Overcast
11:59 AM 78.8 °F - 69.8 °F 74% 29.88 in 10.0 mi Calm Calm - N/A   Overcast
12:19 PM 80.6 °F 83.9 °F 69.8 °F 70% 29.88 in 10.0 mi Calm Calm - N/A   Overcast
12:39 PM 78.8 °F - 68.0 °F 69% 29.87 in 10.0 mi Calm Calm - N/A   Overcast
1:19 PM 82.4 °F 86.3 °F 69.8 °F 66% 29.86 in 10.0 mi South 4.6 mph - N/A   Overcast
1:39 PM 82.4 °F 86.3 °F 69.8 °F 66% 29.86 in 10.0 mi Calm Calm - N/A   Overcast
1:59 PM 82.4 °F 86.3 °F 69.8 °F 66% 29.86 in 10.0 mi Calm Calm - N/A   Overcast
2:19 PM 82.4 °F 86.3 °F 69.8 °F 66% 29.86 in 10.0 mi SSW 3.5 mph - N/A   Overcast
2:39 PM 84.2 °F 87.3 °F 68.0 °F 58% 29.85 in 10.0 mi Calm Calm - N/A   Overcast
2:59 PM 78.8 °F - 71.6 °F 78% 29.86 in 10.0 mi NNE 8.1 mph - N/A   Overcast
3:19 PM 78.8 °F - 71.6 °F 78% 29.86 in 10.0 mi ENE 4.6 mph - N/A   Overcast
3:39 PM 78.8 °F - 71.6 °F 78% 29.85 in 10.0 mi East 10.4 mph - N/A   Overcast
3:59 PM 78.8 °F - 71.6 °F 78% 29.86 in 10.0 mi East 9.2 mph - N/A Thunderstorm Overcast
4:19 PM 77.0 °F - 71.6 °F 83% 29.87 in 10.0 mi ENE 4.6 mph - N/A   Overcast
4:39 PM 77.0 °F - 71.6 °F 83% 29.88 in 10.0 mi NNE 15.0 mph 18.4 mph N/A Rain Light Rain
4:59 PM 73.4 °F - 71.6 °F 94% 29.89 in 7.0 mi ENE 3.5 mph - N/A Rain , Thunderstorm Rain
5:19 PM 73.4 °F - 71.6 °F 94% 29.89 in 10.0 mi NNE 3.5 mph - N/A Rain Light Rain
5:39 PM 73.4 °F - 71.6 °F 94% 29.90 in 10.0 mi Calm Calm - N/A   Overcast
5:59 PM 73.4 °F - 71.6 °F 94% 29.89 in 10.0 mi ENE 8.1 mph - N/A   Overcast
6:20 PM 73.4 °F - 69.8 °F 88% 29.90 in 10.0 mi ENE 6.9 mph - N/A   Overcast
6:39 PM 71.6 °F - 68.0 °F 88% 29.91 in 10.0 mi ENE 9.2 mph - N/A   Overcast
6:59 PM 71.6 °F - 68.0 °F 88% 29.91 in 10.0 mi ENE 3.5 mph - N/A   Overcast
7:20 PM 71.6 °F - 68.0 °F 88% 29.92 in 10.0 mi ENE 8.1 mph - N/A   Overcast
7:39 PM 71.6 °F - 68.0 °F 88% 29.92 in 10.0 mi East 9.2 mph - N/A   Overcast
7:59 PM 71.6 °F - 66.2 °F 83% 29.92 in 10.0 mi ENE 6.9 mph - N/A   Overcast
8:20 PM 69.8 °F - 66.2 °F 88% 29.93 in 10.0 mi ENE 4.6 mph - N/A   Overcast
8:39 PM 69.8 °F - 64.4 °F 83% 29.94 in 10.0 mi ENE 4.6 mph - N/A   Overcast
8:59 PM 69.8 °F - 64.4 °F 83% 29.94 in 10.0 mi ENE 5.8 mph - N/A   Overcast
9:20 PM 69.8 °F - 64.4 °F 83% 29.95 in 10.0 mi ENE 4.6 mph - N/A   Overcast
9:39 PM 69.8 °F - 64.4 °F 83% 29.95 in 10.0 mi ENE 4.6 mph - N/A   Overcast
9:59 PM 68.0 °F - 64.4 °F 88% 29.96 in 10.0 mi NE 4.6 mph - N/A   Overcast
10:20 PM 68.0 °F - 62.6 °F 83% 29.96 in 10.0 mi ENE 4.6 mph - N/A   Overcast
10:39 PM 68.0 °F - 62.6 °F 83% 29.97 in 10.0 mi NE 4.6 mph - N/A   Overcast
10:59 PM 66.2 °F - 62.6 °F 88% 29.97 in 10.0 mi NE 5.8 mph - N/A   Overcast
11:19 PM 66.2 °F - 60.8 °F 83% 29.96 in 10.0 mi NE 5.8 mph - N/A   Overcast
11:39 PM 64.4 °F - 60.8 °F 88% 29.96 in 10.0 mi ENE 4.6 mph - N/A   Overcast
11:59 PM 64.4 °F - 60.8 °F 88% 29.96 in 10.0 mi ENE 10.4 mph 16.1 mph N/A   Overcast